Overview Statistics Trail Chart Weather Telemetry Raw packets
 

This is the latest recevied weather packets stored in our database for station/object N2ZVN. If no packets are shown the sender has not sent any weather packets the latest 10 day(s).

<< 12 13 14 15 16 17 18 >>
Time Temp. Humidity Pressure Rain* Wind** Luminosity Snow
1788623480 22.78° C 64% 1015.4 hPa 0 mm - 723 W/m² -
1788623180 22.78° C 61% 1015.5 hPa 0 mm - 720 W/m² -
1788622876 23.33° C 61% 1015.5 hPa 0 mm - 711 W/m² -
1788622571 22.78° C 67% 1015.5 hPa 0 mm - 703 W/m² -
1788622266 22.22° C 67% 1015.6 hPa 0 mm - 696 W/m² -
1788621961 22.22° C 68% 1015.5 hPa 0 mm - 687 W/m² -
1788621656 22.78° C 66% 1015.6 hPa 0 mm - 684 W/m² -
1788621351 22.78° C 68% 1015.7 hPa 0 mm - 693 W/m² -
1788621047 22.78° C 66% 1015.7 hPa 0 mm - 689 W/m² -
1788620742 23.33° C 64% 1015.4 hPa 0 mm - 666 W/m² -
1788620440 23.33° C 71% 1015.5 hPa 0 mm - 650 W/m² -
1788620139 23.33° C 69% 1015.8 hPa 0 mm - 649 W/m² -
1788619838 22.78° C 70% 1015.6 hPa 0 mm - 628 W/m² -
1788619533 22.78° C 69% 1015.5 hPa 0 mm - 620 W/m² -
1788619232 22.78° C 71% 1015.5 hPa 0 mm - 610 W/m² -
1788618932 22.22° C 70% 1015.5 hPa 0 mm - 589 W/m² -
1788618627 22.22° C 70% 1015.4 hPa 0 mm - 577 W/m² -
1788618325 22.78° C 70% 1015.4 hPa 0 mm - 563 W/m² -
1788618021 22.22° C 72% 1015.7 hPa 0 mm - 548 W/m² -
1788617715 22.22° C 74% 1015.4 hPa 0 mm - 535 W/m² -
1788617412 21.67° C 75% 1015.7 hPa 0 mm - 529 W/m² -
1788617107 21.67° C 75% 1015.4 hPa 0 mm - 514 W/m² -
1788616805 21.67° C 73% 1015.7 hPa 0 mm - 498 W/m² -
1788616501 21.11° C 76% 1015.7 hPa 0 mm - 484 W/m² -
1788616196 21.11° C 78% 1015.6 hPa 0 mm - 462 W/m² -

* Rain latest hour (hover to see other rain measurements)
** Current wind speed in m/s (hover to see current wind gust speed)